Location: Marcé
(47.5801°N, 0.3280°W)
Time: 14:37:45
(UTC+01:00)

Transit 2A - Pass Details

Date: 01 December 2021
Orbit: 591 x 967 km, 66.7° (Epoch: 21 January)

Event Time Altitude Azimuth Distance (km) Brightness Sun altitude
Rises 06:33:37 0° 312° (NW) 3,575 - -18.7°
Exits shadow 06:37:34 10° 337° (NNW) 2,708 8.5 -18.0°
Reaches altitude 10° 06:37:45 10° 339° (NNW) 2,681 8.5 -18.0°
Maximum altitude 06:40:41 13° 7° (N) 2,464 8.5 -17.5°
Drops below altitude 10° 06:43:38 10° 34° (NE) 2,714 9.1 -17.0°
Sets 06:47:52 0° 61° (ENE) 3,656 10.2 -16.3°
